STARLINK-11194, 60187

Orbit data source: Space-Track

STARLINK-11194, 60187 is a payload satellite owned by SpaceX/Seattle (US) in LEO that was launched on Wed, 03 Jul 2024 UTC via an FALCON 9 launch vehicle from the Air Force Eastern Test Range (AFETR). Payload-class satellites include a variety of spacecraft equipped with specific instruments for various scientific and technological missions. These include communications satellites like Starlink; space stations such as the ISS; scientific satellites like the Hubble; Earth observation satellites from companies like Planet Labs, Umbra, and HawkEye 360; GPS; miniature CubeSats for education and research; and military/defense satellites.

Loading next visibility...
Identifier
60187, 2024-124E
Orbit
LEO
Country
Flag of USUS
Related business
Manufacturer
SpaceX/Seattle
Mission
Operational Commercial Communications
Bus & Motor
STARLINK V2MD, Unknown motor
Mass
960 kg wet, ~910 kg dry
Launch date (UTC)
2024-07-03 (1 year ago)
Launch vehicle
FALCON 9
Launch site
Air Force Eastern Test Range (AFETR)
Object type
Payload
Rocket body
Debris
Shape & HBR
Box + 2 Pan, 14.5 m
Radar Cross Section
36.964 m², Large (>1 m²)

Expand to show TLE details & history
Last TLE update: 23 hours ago

TLE from 23 hours ago
0 STARLINK-11194
1 60187U 24124E   25257.42348704  .00000931  00000-0  12548-4 0  9995
2 60187  53.1595 309.8789 0001146  80.5316 279.5832 15.69702965 68854
Epoch: 2025-09-14T10:09Z
TLE epoch observation values (Epoch: 2025-09-14T10:09:49.28Z)
Latitude
0.00004°
Longitude
163.78089°
Altitude
360.533 km
Speed
7.694 km/s
True Right ascension
20h 39m 30s
True Declination
0° 00' 00"
Sunlit
Object was in full shadow at epoch
Visualization orbit readout
Latitude
Unknown
Longitude
Unknown
Altitude
Unknown
Speed
Unknown
Apparent Right ascension
Unknown
Apparent Declination
Unknown
Sunlit
N/A
Visualization observer readout
Local Sidereal Time
02:08:59
Azimuth
Unknown
Elevation
Unknown
Doppler factor
Unknown
Orbital elements
Apogee altitude
360.78 km
Perigee altitude
359.235 km
Semi-major axis
6,738.145 km
Eccentricity
0.00011
Inclination
53.1595°
RAAN
309.8789°
Arg. of periapsis
80.5316°
True anomaly
279.57025°
Mean anomaly
279.5832°
Eccentric anomaly
279.57673°
Mean motion
3.92403 °/min
Orbital period
91.74 mins
BSTAR
0.000012548
Loading maneuver chart data...
Computing Atmospheric mass density...
Loading historical data...
Loading historical data...
Loading historical data...
Loading historical data...
Loading historical data...
Loading historical data...
Loading historical data...

Documentation

Showing up to 5 results
|